Home   Weather   Arctic Bay   Past weeks

Flag for Canada Past Weather in Arctic Bay, Nunavut, Canada — Yesterday and Last 2 Weeks

Now
1 °F

Clear.


Feels Like: 1 °F
Forecast: -6 / 16 °F
Wind: 2 mph from South

Location: Pond Inlet

Current Time: May 1, 2017 at 12:45:48 am

Latest Report: May 1, 2017 at 12:00 am


Visibility: 9 mi

Pressure: 29.94 "Hg

Humidity: 85%

Dew Point: -2 °F

Location of Arctic BayLocation

Past Weather in Arctic Bay — Graph

°F

Arctic Bay Temperature Yesterday

Maximum temperature yesterday: 5 °F (at 1:00 pm)
Minimum temperature yesterday: -6 °F (at 2:00 am)
Average temperature yesterday: 1 °F

High & Low Weather Summary for the Past Weeks

 TemperatureHumidityPressure
High12 °F (Apr 22, 10:00 am)92% (Apr 15, 11:00 pm)30.34 "Hg (Apr 15, 11:00 pm)
Low-15 °F (Apr 19, 5:00 am)52% (Apr 23, 1:00 pm)29.80 "Hg (Apr 18, 4:00 am)
Average-3 °F78%30.10 "Hg
* Reported Apr 15 11:00 pm — Apr 30 11:00 pm, Arctic Bay, Weather by CustomWeather, © 2017

Note: Actual official high and low records may vary slightly from our data, if they occured in-between our weather recording intervals... More about our weather records

Advertising

Arctic Bay Weather History for the Previous 24 Hours

Scroll right to see more
 ConditionsComfort  
Time TempWeatherWind HumidityBarometerVisibility
11:00 pm
Sun, Apr 30
1 °FPassing clouds.3 mph78%29.95 "Hg9 mi
10:00 pm1 °FClear.5 mph85%29.96 "Hg9 mi
9:00 pm3 °FSunny.No wind78%29.96 "Hg9 mi
8:00 pm3 °FSunny.No wind85%29.97 "Hg9 mi
7:00 pm5 °FPartly sunny.3 mph78%29.97 "Hg9 mi
6:00 pm5 °FPassing clouds.2 mph78%29.97 "Hg9 mi
5:00 pm5 °FSunny.2 mph78%29.97 "Hg9 mi
4:00 pm5 °FSunny.No wind72%29.97 "Hg9 mi
3:00 pm5 °FSunny.2 mph72%29.96 "Hg9 mi
2:00 pm5 °FSunny.3 mph72%29.97 "Hg9 mi
1:00 pm5 °FSunny.2 mph72%29.96 "Hg9 mi
12:00 pm1 °FSunny.2 mph78%29.96 "Hg9 mi
11:00 am3 °FOvercast.No wind72%29.96 "Hg9 mi
10:00 am0 °FPassing clouds.3 mph78%29.96 "Hg9 mi
9:00 am0 °FScattered clouds.5 mph78%29.96 "Hg9 mi
8:00 am-4 °FSunny.6 mph84%29.94 "Hg9 mi
7:00 am-2 °FSunny.6 mph77%29.94 "Hg9 mi
6:00 am-4 °FPassing clouds.7 mph77%29.93 "Hg9 mi
5:00 am-4 °FSunny.8 mph84%29.93 "Hg9 mi
4:00 am0 °FSunny.5 mph71%29.92 "Hg9 mi
3:00 am-2 °FSunny.5 mph77%29.92 "Hg9 mi
2:00 am-6 °FSunny.6 mph77%29.91 "Hg9 mi
1:00 am0 °FClear.2 mph78%29.91 "Hg9 mi
12:00 am0 °FClear.3 mph71%29.91 "Hg9 mi
Weather by CustomWeather, © 2017

See weather overviewHow to use our weather pages